Header for Extended Forecast Station List Page

Search by: ID | Name | Date | Parm | Value | Avg | % Avg
Sort by: ID | Name | Date | Parm | Value | Avg | % Avg

Enter search or view all records.

Click on id for station plot
#IDNameDateParmValueAvg% Avg
0RCCM8ROCK CREEK-NEAR CLINTON01-30-2023DISCHARGE (KAF)7013552
1BITM8BITTERROOT-NEAR MISSOULA01-30-2023DISCHARGE (KAF)32362452
2FCFM8NF FLATHEAD-NEAR COLUMBIA FALLS01-30-2023DISCHARGE (KAF)46480058
3TONW1OKANOGAN-NEAR TONASKET01-30-2023DISCHARGE (KAF)54788462
4SRGM8CLARK FORK-AT ST REGIS01-30-2023DISCHARGE (KAF)1255198163
5CABI1CLARK FORK-CABINET GORGE DAM01-30-2023INFLOW (KAF)3775596163
6LAUW1KETTLE-AT LAURIER01-30-2023DISCHARGE (KAF)715114463
7NOXM8CLARK FORK-NOXON RAPIDS DAM01-30-2023INFLOW (KAF)3390525664
8BELM8CLARK FORK-BELOW MISSOULA01-30-2023DISCHARGE (KAF)947146665
9CHDW1CHELAN-LAKE CHELAN DAM01-30-2023INFLOW (KAF)35354465
10WHBI1SALMON-AT WHITEBIRD01-30-2023DISCHARGE (KAF)2064318065
11MYKO3MCKAY CREEK-NEAR PILOT ROCK01-30-2023DISCHARGE (KAF)274265
12PATW1METHOW-NEAR PATEROS01-30-2023DISCHARGE (KAF)31147066
13HALI1BIG WOOD-AT HAILEY01-30-2023DISCHARGE (KAF)7110766
14HOTI1BRUNEAU-NEAR HOT SPRINGS01-30-2023DISCHARGE (KAF)7711667
15KERM8FLATHEAD-SELI’Š KSANKA QLISPE’ DAM01-30-2023INFLOW (KAF)2135314668
16ARDW1ENTIAT-NEAR ARDENVOIR01-30-2023DISCHARGE (KAF)649468
17PRWW1COLUMBIA-PRIEST RAPIDS DAM01-30-2023INFLOW (KAF)200952941368
18ANAW1SNAKE-NEAR ANATONE01-30-2023DISCHARGE (KAF)6647976068
19WELW1COLUMBIA-WELLS DAM01-30-2023INFLOW (KAF)190722766769
20RRHW1COLUMBIA-ROCKY REACH DAM01-30-2023INFLOW (KAF)194592826669
21WANW1COLUMBIA-WANAPUM DAM01-30-2023INFLOW (KAF)201012933369
22ALFW1PEND OREILLE-ALBENI FALLS DAM01-30-2023INFLOW (KAF)4913705670
23CHJW1COLUMBIA-CHIEF JOSEPH DAM01-30-2023INFLOW (KAF)182362613570
24DLGM8CLARK FORK-AT DEER LODGE01-30-2023DISCHARGE (KAF)456371
25CIBW1COLUMBIA-AT INTL BOUNDARY01-30-2023DISCHARGE (KAF)147772092971
26EMMI1PAYETTE-NEAR EMMETT01-30-2023DISCHARGE (KAF)61385971
27MCDW1COLUMBIA-MCNARY DAM01-30-2023INFLOW (KAF)323794584071
28BONO3COLUMBIA-BONNEVILLE DAM01-30-2023INFLOW (KAF)359175056671
29WGCM8MF FLATHEAD-NEAR WEST GLACIER01-30-2023DISCHARGE (KAF)54676072
30STRM8ST. REGIS-NEAR ST. REGIS01-30-2023DISCHARGE (KAF)14119672
31JKSW4SNAKE-NEAR JACKSON01-30-2023DISCHARGE (KAF)47465972
32MAGI1BIG WOOD-MAGIC DAM01-30-2023INFLOW (KAF)8612072
33JDAO3COLUMBIA-JOHN DAY DAM01-30-2023INFLOW (KAF)343644797372
34TDAO3COLUMBIA-THE DALLES DAM01-30-2023INFLOW (KAF)348434847772
35DRMM8CLARK FORK-NR DRUMMOND01-30-2023DISCHARGE (KAF)12917673
36ALPW4SNAKE-NEAR ALPINE01-30-2023DISCHARGE (KAF)62885773
37SERO3JOHN DAY-AT SERVICE CK01-30-2023DISCHARGE (KAF)60081973
38GCDW1COLUMBIA-GRAND COULEE DAM01-30-2023INFLOW (KAF)180802446674
39PARW1YAKIMA-NEAR PARKER01-30-2023DISCHARGE (KAF)53471974
40LGSW1SNAKE-LITTLE GOOSE DAM01-30-2023INFLOW (KAF)112341508474
41LYDM8KOOTENAI-LIBBY DAM01-30-2023INFLOW (KAF)1769235975
42CFMM8FLATHEAD-AT COLUMBIA FALLS01-30-2023DISCHARGE (KAF)1849247475
43KIOW1YAKIMA-AT KIONA01-30-2023DISCHARGE (KAF)781104075
44LGDW1SNAKE-LOWER GRANITE DAM01-30-2023INFLOW (KAF)112341503875
45LMNW1SNAKE-LOWER MONUMENTAL DAM01-30-2023INFLOW (KAF)114261525675
46IHDW1SNAKE-ICE HARBOR DAM01-30-2023INFLOW (KAF)114241527275
47ABOM8CLARK FORK-ABOVE MISSOULA01-30-2023DISCHARGE (KAF)62281576
48WRMO3MALHEUR-WARM SPRINGS DAM01-30-2023INFLOW (KAF)607777
49CSDI1NF PAYETTE-CASCADE DAM01-30-2023INFLOW (KAF)26234077
50MONO3NF JOHN DAY-AT MONUMENT01-30-2023DISCHARGE (KAF)43857277
51PESW1WENATCHEE-AT PESHASTIN01-30-2023DISCHARGE (KAF)64581979
52PLDI1SF SNAKE-PALISADES DAM01-30-2023INFLOW (KAF)1085137679
53HWRI1BIG LOST-AT HOWELL RANCH NEAR CHILLY01-30-2023DISCHARGE (KAF)415279
54UMAO3UMATILLA-NEAR UMATILLA01-30-2023DISCHARGE (KAF)14417980
55TEAI1TETON-NEAR ST. ANTHONY01-30-2023DISCHARGE (KAF)15819183
56PRTI1PRIEST-NEAR PRIEST RIVER01-30-2023DISCHARGE (KAF)49058484
57EASW1YAKIMA-AT EASTON01-30-2023DISCHARGE (KAF)8410084
58IPDI1HENRYS FORK-ISLAND PARK DAM01-30-2023INFLOW (KAF)12414784
59HHWM8SF FLATHEAD-HUNGRY HORSE DAM01-30-2023INFLOW (KAF)905106785
60SPOW1SPOKANE-AT SPOKANE01-30-2023DISCHARGE (KAF)2181255885
61JLKW4SNAKE-JACKSON LAKE AT DAM01-30-2023INFLOW (KAF)31436985
62LLKW1SPOKANE-AT LONGLAKE01-30-2023INFLOW (KAF)2485289586
63REXI1HENRYS FORK-AT REXBURG01-30-2023DISCHARGE (KAF)50458586
64ORFI1CLEARWATER-AT OROFINO01-30-2023DISCHARGE (KAF)2708314886
65BONM8BLACKFOOT-NEAR BONNER01-30-2023DISCHARGE (KAF)40346587
66CHEI1FALL RIVER-NEAR CHESTER01-30-2023DISCHARGE (KAF)19922987
67NACW1NACHES-NEAR NACHES01-30-2023DISCHARGE (KAF)34739788
68ANTI1HENRYS FORK-AT ST. ANTHONY01-30-2023DISCHARGE (KAF)46752888
69MILI1SNAKE-AT MILNER01-30-2023DISCHARGE (KAF)485588
70DEDI1DEADWOOD-NEAR LOWMAN01-30-2023INFLOW (KAF)677688
71WSRI1WEISER-NEAR WEISER01-30-2023DISCHARGE (KAF)34639388
72WEII1SNAKE-AT WEISER01-30-2023DISCHARGE (KAF)3357378989
73BRNI1SNAKE-BROWNLEE DAM01-30-2023INFLOW (KAF)3758420989
74PDTO3UMATILLA-AT PENDLETON01-30-2023DISCHARGE (KAF)18320290
75TCHW1WALLA WALLA-NEAR TOUCHET01-30-2023DISCHARGE (KAF)20722791
76MACI1BIG LOST-MACKAY RESERVOIR NEAR MACKAY01-30-2023INFLOW (KAF)414592
77BERO3MALHEUR-AGENCY VALLEY DAM01-30-2023INFLOW (KAF)454992
78UMTW1YAKIMA-AT UMTANUM01-30-2023DISCHARGE (KAF)52656693
79CLFW1NACHES-NEAR CLIFFDEL01-30-2023DISCHARGE (KAF)25327393
80SWAI1SNAKE-BELOW SWAN FALLS01-30-2023DISCHARGE (KAF)1767190893
81TRYO3GRANDE RONDE-TROY01-30-2023DISCHARGE (KAF)1051113293
82SPDI1CLEARWATER-AT SPALDING01-30-2023DISCHARGE (KAF)4586493093
83PITW1KLICKITAT-NEAR PITT01-30-2023DISCHARGE (KAF)46850293
84COEI1COEUR D ALENE-COEUR D ALENE LAKE01-30-2023INFLOW (KAF)2361250994
85RILW1TIETON-RIMROCK LAKE NEAR RIMROCK01-30-2023INFLOW (KAF)12212994
86GIBO3UMATILLA-NEAR GIBBON01-30-2023DISCHARGE (KAF)859094
87ARAI1SF BOISE-ANDERSON RANCH DAM01-30-2023INFLOW (KAF)29629999
88DWRI1NF CLEARWATER-DWORSHAK DAM01-30-2023INFLOW (KAF)2038204999
89UNDW1WHITE SALMON-NEAR UNDERWOOD01-30-2023DISCHARGE (KAF)33734399
90BUDW1BUMPING-BUMPING LAKE DAM01-30-2023INFLOW (KAF)7675101
91PIHI1PORTNEUF-AT POCATELLO01-30-2023DISCHARGE (KAF)7575101
92MODO3DESCHUTES-AT MOODY NR BIGGS01-30-2023DISCHARGE (KAF)14891457102
93TNAW1TEANAWAY-BELOW FORKS01-30-2023DISCHARGE (KAF)129126103
94CLUW1CLE ELUM-CLE ELUM LAKE01-30-2023INFLOW (KAF)266255104
95KADW1KACHESS-KACHESS DAM01-30-2023INFLOW (KAF)9389105
96SATI1ST MARIES-NEAR SANTA01-30-2023DISCHARGE (KAF)146136107
97LEOI1KOOTENAI-AT LEONIA01-30-2023DISCHARGE (KAF)28422620108
98HEII1SNAKE-NEAR HEISE01-30-2023DISCHARGE (KAF)14001300108
99HODO3HOOD-NEAR TUCKER BRIDGE01-30-2023DISCHARGE (KAF)289266109
100SHYI1SNAKE-NEAR SHELLEY01-30-2023DISCHARGE (KAF)13381219110
101AFRI1SNAKE-AMERICAN FALLS RESERVOIR01-30-2023INFLOW (KAF)17251559111
102KEDW1YAKIMA-KEECHELUS LAKE01-30-2023INFLOW (KAF)10795112
103SIFI1SNAKE-AB EAGLE ROCK NR IDAHO FALLS01-30-2023DISCHARGE (KAF)14201273112
104RIDI1WILLOW CREEK-RIRIE DAM01-30-2023INFLOW (KAF)4336119
105LUCI1BOISE-LUCKY PEAK DAM01-30-2023INFLOW (KAF)863728119
106BFTI1SNAKE-NEAR BLACKFOOT01-30-2023DISCHARGE (KAF)1106912121
107SNAI1SNAKE-AT BLACKFOOT01-30-2023DISCHARGE (KAF)1127917123
108LWRI1LITTLE WOOD-LITTLE WOOD DAM01-30-2023INFLOW (KAF)5441133
109PARI1BOISE-NEAR PARMA01-30-2023DISCHARGE (KAF)386239161
110OWYO3OWYHEE-OWYHEE DAM01-30-2023INFLOW (KAF)425263162
111BIGI1BOISE-AT GLENWOOD BRIDGE01-30-2023DISCHARGE (KAF)330169196
112BULO3BULLY CREEK-BULLY CREEK DAM01-30-2023INFLOW (KAF)305584
113BFEI1KOOTENAI-AT BONNERS FERRY01-30-2023STAGE (FT)MMM
114HOPI1PEND OREILLE-PEND OREILLE LAKE NR HOPE01-30-2023LAKE ELEVATION (FT)MMM
115SJMI1ST JOE-AT ST MARIES01-30-2023STAGE (FT)MMM